ROMMA est une association bénévole à but non lucratif. Votre soutien est indispensable : ADHERER à ROMMA ou FAIRE un DON

La Beaume - (05, Hautes Alpes)

Buëch (820 m)   Longitude: 5° 40' 9'' E   Latitude: 44° 32' 3'' N Station partenaire n°75
 

Détail journalier du     <<     >>

Température Precipitation Humidité Pression Vent Dir Rafale Dir. rafale Ensol.
Heure (°C) (mm) (%) (hPa) (km/h) (km/h) (min)
01:00 10.0066101315NNE45NE0
02:00 9.2065101312N45N0
03:00 8.80.266101219N50N0
04:00 8.6066101219N60OSO0
05:00 8.1066101224N61E0
06:00 8.0063101222N48N0
07:00 7.4066101223N40NNO0
08:00 7.4069101322N42NNE0
09:00 8.2067101324N50ONO30
10:00 8.7066101427N53NNE60
11:00 10.4061101422N47ENE60
12:00 12.1050101419N39NNE60
13:00 14.1041101423NNE52ENE60
14:00 14.6038101322NNE48ENE60
15:00 15.8034101321NNE40NE60
16:00 15.7035101322NNE39NNE60
17:00 15.8032101319NNE37NNE60
18:00 14.3030101415NNE32NNE30
19:00 13.5039101412N31N30
20:00 12.704910159N19NNE0
21:00 11.8053101511N26NNE0
22:00 11.505310159ONO29NO0
23:00 11.105510156N18NO0
minuit 10.205710156N19N0

Graphique du 03-10-2019

 

Serveur OMMA